This is the latest recevied weather packets stored in our database for station/object W4UWO. If no packets are shown the sender has not sent any weather packets the latest 10 day(s).
| Time | Temp. | Humidity | Pressure | Rain* | Wind** | Luminosity | Snow |
|---|---|---|---|---|---|---|---|
| 1788013268 | 26.67° C | 65% | 1021.9 hPa | 0 mm | - | 446 W/m² | - |
| 1788012962 | 26.67° C | 64% | 1021.8 hPa | 0 mm | - | 464 W/m² | - |
| 1788012662 | 26.67° C | 64% | 1021.8 hPa | 0 mm | - | 165 W/m² | - |
| 1788012357 | 26.11° C | 67% | 1021.8 hPa | 0 mm | - | 421 W/m² | - |
| 1788012052 | 25.56° C | 68% | 1021.7 hPa | 0 mm | - | 418 W/m² | - |
| 1788011750 | 25° C | 71% | 1021.8 hPa | 0 mm | - | 411 W/m² | - |
| 1788011446 | 24.44° C | 72% | 1021.9 hPa | 0 mm | - | 169 W/m² | - |
| 1788011145 | 24.44° C | 71% | 1022 hPa | 0 mm | - | 157 W/m² | - |
| 1788010840 | 24.44° C | 71% | 1022 hPa | 0 mm | - | 158 W/m² | - |
| 1788010539 | 24.44° C | 73% | 1022.1 hPa | 0 mm | - | 177 W/m² | - |
| 1788010234 | 23.89° C | 73% | 1022.1 hPa | 0 mm | - | 305 W/m² | - |
| 1788009933 | 24.44° C | 72% | 1022 hPa | 0 mm | - | 183 W/m² | - |
| 1788009632 | 24.44° C | 72% | 1021.7 hPa | 0 mm | - | 118 W/m² | - |
| 1788009327 | 24.44° C | 71% | 1021.6 hPa | 0 mm | - | 255 W/m² | - |
| 1788009021 | 24.44° C | 71% | 1021.6 hPa | 0 mm | - | 138 W/m² | - |
| 1788008717 | 23.89° C | 74% | 1021.4 hPa | 0 mm | - | 201 W/m² | - |
| 1788008416 | 23.33° C | 75% | 1021.5 hPa | 0 mm | - | 72 W/m² | - |
| 1788008113 | 22.78° C | 77% | 1021.3 hPa | 0 mm | - | 69 W/m² | - |
| 1788007812 | 22.22° C | 78% | 1021.1 hPa | 0 mm | - | 68 W/m² | - |
| 1788007511 | 22.22° C | 80% | 1021.3 hPa | 0 mm | - | 68 W/m² | - |
| 1788007206 | 22.22° C | 80% | 1021.3 hPa | 0 mm | - | 79 W/m² | - |
| 1788006905 | 22.22° C | 80% | 1021.4 hPa | 0 mm | - | 103 W/m² | - |
| 1788006605 | 21.67° C | 80% | 1021.3 hPa | 0 mm | - | 95 W/m² | - |
| 1788006300 | 21.67° C | 81% | 1021.3 hPa | 0 mm | - | 86 W/m² | - |
| 1788005998 | 21.11° C | 83% | 1021.2 hPa | 0 mm | - | 76 W/m² | - |
* Rain latest hour (hover to see other rain measurements)
** Current wind speed in m/s (hover to see current wind gust speed)